When you browse on this site, cookies collect data to enhance your experience and personalize the content and advertising you see.
Visit our Privacy Policy to learn more. By continuing to use the site, you agree to this use of cookies and data.

Meteo orario Tymofiivka

Oggi, 3 Agosto, Lunedi

Tempo Temperatura Precipitazioni Vento Pressione Umidità
00:00 +21°C° 0 mm 2 m/s 757 mm Hg 53%
01:00 +20°C° 0 mm 2 m/s 757 mm Hg 57%
02:00 +19°C° 0 mm 2 m/s 758 mm Hg 60%
03:00 +18°C° 0 mm 2 m/s 758 mm Hg 63%
04:00 +18°C° 0 mm 2 m/s 758 mm Hg 65%
05:00 +18°C° 0 mm 2 m/s 758 mm Hg 68%
06:00 +19°C° 0 mm 2 m/s 759 mm Hg 63%
07:00 +21°C° 0 mm 2 m/s 759 mm Hg 58%
08:00 +24°C° 0 mm 3 m/s 759 mm Hg 52%
09:00 +25°C° 0 mm 2 m/s 759 mm Hg 49%
10:00 +25°C° 0 mm 2 m/s 759 mm Hg 45%
11:00 +26°C° 0 mm 1 m/s 759 mm Hg 42%
12:00 +27°C° 0 mm 2 m/s 759 mm Hg 40%
13:00 +28°C° 0 mm 2 m/s 759 mm Hg 38%
14:00 +28°C° 0 mm 2 m/s 759 mm Hg 37%
15:00 +28°C° 0 mm 2 m/s 758 mm Hg 37%
16:00 +28°C° 0 mm 2 m/s 758 mm Hg 38%
17:00 +28°C° 0 mm 2 m/s 758 mm Hg 39%
18:00 +26°C° 0 mm 2 m/s 758 mm Hg 44%
19:00 +25°C° 0 mm 2 m/s 758 mm Hg 49%
20:00 +23°C° 0 mm 2 m/s 758 mm Hg 54%
21:00 +23°C° 0 mm 1 m/s 758 mm Hg 56%
22:00 +22°C° 0 mm 1 m/s 758 mm Hg 57%
23:00 +22°C° 0 mm 1 m/s 758 mm Hg 58%

Domani, 4 Agosto, Martedi

Tempo Temperatura Precipitazioni Vento Pressione Umidità
00:00 +20°C° 0 mm 2 m/s 758 mm Hg 60%
01:00 +20°C° 0 mm 2 m/s 758 mm Hg 62%
02:00 +20°C° 0 mm 2 m/s 759 mm Hg 63%
03:00 +19°C° 0 mm 3 m/s 758 mm Hg 64%
04:00 +19°C° 0 mm 3 m/s 758 mm Hg 65%
05:00 +19°C° 0 mm 3 m/s 758 mm Hg 66%
06:00 +21°C° 0 mm 3 m/s 758 mm Hg 62%
07:00 +23°C° 0 mm 4 m/s 758 mm Hg 58%
08:00 +26°C° 0 mm 4 m/s 759 mm Hg 54%
09:00 +27°C° 0 mm 4 m/s 758 mm Hg 50%
10:00 +28°C° 0 mm 5 m/s 758 mm Hg 46%
11:00 +29°C° 0 mm 5 m/s 758 mm Hg 42%
12:00 +30°C° 0 mm 5 m/s 758 mm Hg 41%
13:00 +30°C° 0 mm 5 m/s 758 mm Hg 39%
14:00 +30°C° 0 mm 6 m/s 758 mm Hg 38%
15:00 +29°C° 0 mm 5 m/s 758 mm Hg 39%
16:00 +29°C° 0 mm 5 m/s 757 mm Hg 39%
17:00 +28°C° 0 mm 5 m/s 757 mm Hg 40%
18:00 +27°C° 0 mm 4 m/s 757 mm Hg 44%
19:00 +25°C° 0 mm 3 m/s 757 mm Hg 48%
20:00 +24°C° 0 mm 2 m/s 757 mm Hg 51%
21:00 +23°C° 0 mm 2 m/s 758 mm Hg 53%
22:00 +23°C° 0 mm 2 m/s 758 mm Hg 55%
23:00 +21°C° 0 mm 2 m/s 758 mm Hg 57%

Dopodomani, 5 Agosto, Mercoledi

Tempo Temperatura Precipitazioni Vento Pressione Umidità
00:00 +21°C° 0 mm 3 m/s 758 mm Hg 58%
01:00 +21°C° 0 mm 3 m/s 758 mm Hg 58%
02:00 +20°C° 0 mm 4 m/s 758 mm Hg 59%
03:00 +20°C° 0 mm 4 m/s 757 mm Hg 60%
04:00 +19°C° 0 mm 4 m/s 757 mm Hg 60%
05:00 +19°C° 0 mm 4 m/s 757 mm Hg 61%
06:00 +21°C° 0 mm 4 m/s 758 mm Hg 57%
07:00 +23°C° 0 mm 5 m/s 758 mm Hg 52%
08:00 +26°C° 0 mm 5 m/s 758 mm Hg 47%
09:00 +27°C° 0 mm 5 m/s 758 mm Hg 43%
10:00 +28°C° 0 mm 6 m/s 758 mm Hg 39%
11:00 +29°C° 0 mm 6 m/s 758 mm Hg 35%
12:00 +30°C° 0 mm 5 m/s 758 mm Hg 33%
13:00 +32°C° 0 mm 5 m/s 758 mm Hg 32%
14:00 +33°C° 0 mm 5 m/s 758 mm Hg 30%
15:00 +32°C° 0 mm 5 m/s 758 mm Hg 31%
16:00 +32°C° 0 mm 5 m/s 757 mm Hg 33%
17:00 +30°C° 0 mm 5 m/s 757 mm Hg 34%
18:00 +29°C° 0 mm 4 m/s 757 mm Hg 39%
19:00 +27°C° 0 mm 4 m/s 758 mm Hg 43%
20:00 +25°C° 0 mm 3 m/s 758 mm Hg 47%
21:00 +25°C° 0 mm 3 m/s 758 mm Hg 49%
22:00 +25°C° 0 mm 4 m/s 758 mm Hg 50%
23:00 +23°C° 0 mm 5 m/s 758 mm Hg 52%

6 Agosto, Giovedi

Tempo Temperatura Precipitazioni Vento Pressione Umidità
00:00 +23°C° 0 mm 5 m/s 758 mm Hg 53%
01:00 +22°C° 0 mm 5 m/s 758 mm Hg 55%
02:00 +22°C° 0 mm 5 m/s 758 mm Hg 57%
03:00 +21°C° 0 mm 4 m/s 758 mm Hg 59%
04:00 +21°C° 0 mm 4 m/s 758 mm Hg 61%
05:00 +21°C° 0 mm 4 m/s 758 mm Hg 63%
06:00 +22°C° 0 mm 4 m/s 758 mm Hg 60%
07:00 +25°C° 0 mm 5 m/s 758 mm Hg 57%
08:00 +27°C° 0 mm 5 m/s 758 mm Hg 54%
09:00 +29°C° 0 mm 5 m/s 758 mm Hg 50%
10:00 +30°C° 0 mm 5 m/s 758 mm Hg 46%
11:00 +33°C° 0 mm 6 m/s 758 mm Hg 43%
12:00 +33°C° 0 mm 5 m/s 758 mm Hg 40%
13:00 +34°C° 0 mm 5 m/s 758 mm Hg 38%
14:00 +35°C° 0 mm 5 m/s 758 mm Hg 36%
15:00 +35°C° 0 mm 5 m/s 758 mm Hg 37%
16:00 +34°C° 0 mm 5 m/s 758 mm Hg 38%
17:00 +34°C° 0 mm 5 m/s 757 mm Hg 39%
18:00 +32°C° 0 mm 5 m/s 758 mm Hg 43%
19:00 +30°C° 0 mm 4 m/s 758 mm Hg 48%
20:00 +28°C° 0 mm 3 m/s 758 mm Hg 52%
21:00 +28°C° 0 mm 4 m/s 758 mm Hg 53%
22:00 +27°C° 0 mm 4 m/s 758 mm Hg 55%
23:00 +27°C° 0 mm 5 m/s 758 mm Hg 56%

7 Agosto, Venerdi

Tempo Temperatura Precipitazioni Vento Pressione Umidità
00:00 +26°C° 0 mm 5 m/s 758 mm Hg 59%
01:00 +26°C° 0 mm 5 m/s 758 mm Hg 62%
02:00 +25°C° 0 mm 5 m/s 758 mm Hg 65%
03:00 +25°C° 0 mm 5 m/s 758 mm Hg 68%
04:00 +23°C° 0 mm 5 m/s 758 mm Hg 70%
05:00 +23°C° 0 mm 5 m/s 758 mm Hg 73%
06:00 +26°C° 0 mm 5 m/s 758 mm Hg 68%
07:00 +27°C° 0 mm 5 m/s 758 mm Hg 62%
08:00 +29°C° 0 mm 6 m/s 758 mm Hg 57%
09:00 +30°C° 0 mm 6 m/s 758 mm Hg 51%
10:00 +33°C° 0 mm 6 m/s 758 mm Hg 46%
11:00 +34°C° 0 mm 6 m/s 758 mm Hg 40%
12:00 +35°C° 0 mm 6 m/s 758 mm Hg 38%
13:00 +35°C° 0 mm 6 m/s 757 mm Hg 36%
14:00 +36°C° 0 mm 6 m/s 757 mm Hg 34%
15:00 +36°C° 0 mm 5 m/s 757 mm Hg 36%
16:00 +35°C° 0 mm 5 m/s 757 mm Hg 37%
17:00 +35°C° 0 mm 5 m/s 757 mm Hg 39%
18:00 +33°C° 0 mm 4 m/s 757 mm Hg 43%
19:00 +30°C° 0 mm 3 m/s 757 mm Hg 47%
20:00 +29°C° 0 mm 2 m/s 757 mm Hg 51%
21:00 +28°C° 0 mm 3 m/s 757 mm Hg 53%
22:00 +28°C° 0 mm 4 m/s 757 mm Hg 54%
23:00 +27°C° 0 mm 5 m/s 757 mm Hg 56%

8 Agosto, Sabato

Tempo Temperatura Precipitazioni Vento Pressione Umidità
00:00 +27°C° 0 mm 5 m/s 756 mm Hg 57%
01:00 +26°C° 0 mm 5 m/s 756 mm Hg 59%
02:00 +26°C° 0 mm 5 m/s 756 mm Hg 61%
03:00 +25°C° 0 mm 5 m/s 756 mm Hg 62%
04:00 +25°C° 0 mm 4 m/s 756 mm Hg 62%
05:00 +23°C° 0 mm 4 m/s 756 mm Hg 63%
06:00 +26°C° 0 mm 5 m/s 756 mm Hg 60%
07:00 +27°C° 0 mm 5 m/s 756 mm Hg 57%
08:00 +29°C° 0 mm 5 m/s 756 mm Hg 53%
09:00 +30°C° 0 mm 5 m/s 756 mm Hg 49%
10:00 +33°C° 0 mm 5 m/s 756 mm Hg 44%
11:00 +34°C° 0 mm 6 m/s 756 mm Hg 39%
12:00 +34°C° 0 mm 6 m/s 755 mm Hg 38%
13:00 +35°C° 0 mm 6 m/s 755 mm Hg 37%
14:00 +35°C° 0 mm 5 m/s 755 mm Hg 36%
15:00 +35°C° 0 mm 5 m/s 754 mm Hg 36%
16:00 +34°C° 0 mm 5 m/s 754 mm Hg 36%
17:00 +34°C° 0 mm 5 m/s 754 mm Hg 35%
18:00 +33°C° 0 mm 5 m/s 754 mm Hg 40%
19:00 +30°C° 0 mm 4 m/s 754 mm Hg 44%
20:00 +28°C° 0 mm 4 m/s 754 mm Hg 48%
21:00 +28°C° 0 mm 4 m/s 754 mm Hg 50%
22:00 +28°C° 0 mm 5 m/s 754 mm Hg 52%
23:00 +27°C° 0 mm 6 m/s 754 mm Hg 54%
Mostrare altro